[[{"header":{"parameterUnit":"m.s-1","parameterCategory":1,"la1":30.2991,"la2":30.254,"lo1":-89.0895,"lo2":-89.0444,"dy":0.0017,"dx":0.0017,"nx":28,"ny":28,"refTime":"2025-01-29T09:00:00:Z","depth":0,"parameterNumber":2,"parameterNumberName":"U-component_of_WINDS"},"data":[0,0,0,0,0,0,0,0,0,0,0,0,0,0,0,0,0,0,0,0,0,0,0,0,0,0,0,0,0,0,0,0,0,0,0,0,0,0,0,0,0,0,0,0,0,0,0,0,0,0,0,0,0,0,0,0,0,0,-2.3521,-2.3521,0,-2.3542,-2.3542,-2.3542,-2.3544,-2.3543,-2.3543,-2.3543,-2.3562,-2.3563,-2.3564,0,0,0,0,0,0,0,0,0,0,0,0,0,-2.3479,-2.3479,-2.3521,-2.3521,-2.3521,-2.3542,-2.3542,-2.3542,-2.3544,-2.3543,-2.3543,-2.3543,-2.3562,-2.3563,-2.3564,0,0,0,0,0,0,0,0,0,0,0,0,0,-2.3498,-2.348,-2.3521,-2.3524,-2.3525,-2.3542,-2.3542,-2.3543,-2.3544,-2.3543,-2.3543,-2.3543,-2.3562,-2.3563,-2.3564,-2.3578,0,0,-2.3567,-2.3568,0,0,0,0,0,0,0,0,-2.3497,-2.35,-2.3524,-2.3524,-2.3525,-2.354,-2.3535,-2.3554,-2.3544,-2.3536,-2.3543,-2.3543,-2.3555,-2.3557,-2.3561,-2.3579,-2.358,-2.3568,-2.3568,-2.3569,-2.3569,0,0,0,0,0,0,0,-2.3496,-2.3499,-2.3529,-2.3524,-2.3525,-2.3524,-2.3527,-2.3538,-2.3547,-2.3537,-2.3537,-2.354,-2.3555,-2.356,-2.3562,-2.358,-2.3568,-2.3569,-2.3569,-2.357,-2.361,-2.361,0,0,0,0,0,0,-2.3494,-2.3498,-2.3528,-2.353,-2.351,-2.3525,-2.3528,-2.3535,-2.3547,-2.3549,-2.354,-2.354,-2.3559,-2.3561,-2.3563,-2.3579,-2.3569,-2.357,-2.357,-2.3609,-2.361,-2.361,0,0,0,0,0,0,-2.3493,-2.3497,-2.3527,-2.3514,-2.3518,-2.3526,-2.3535,-2.3536,-2.3541,-2.355,-2.3551,-2.3544,-2.3558,-2.3561,-2.3574,-2.358,-2.357,-2.3571,-2.3609,-2.3609,-2.361,-2.3613,0,0,0,0,0,0,-2.3492,-2.3496,-2.3502,-2.3514,-2.3518,-2.3539,-2.3535,-2.3537,-2.3543,-2.3543,-2.3553,-2.3555,-2.3558,-2.3573,-2.3575,-2.3581,-2.3572,-2.3608,-2.3609,-2.361,-2.3612,-2.3614,-2.3615,0,0,0,0,0,-2.349,-2.3502,-2.3503,-2.3506,-2.3526,-2.354,-2.3542,-2.3547,-2.3544,-2.3549,-2.3555,-2.3554,-2.3579,-2.3574,-2.3577,-2.3583,-2.3608,-2.3609,-2.361,-2.3612,-2.3613,-2.3615,0,0,0,0,0,0,-2.349,-2.3503,-2.3504,-2.352,-2.3529,-2.354,-2.3547,-2.3548,-2.3557,-2.3557,-2.3561,-2.3564,-2.3577,-2.3581,-2.3575,-2.3597,-2.3593,-2.3595,-2.3594,-2.3595,-2.3596,-2.3594,-2.3573,0,0,0,0,0,-2.3492,-2.3503,-2.3514,-2.3526,-2.3531,-2.3538,-2.3544,-2.3547,-2.3556,-2.356,-2.3566,-2.3574,-2.3584,-2.359,-2.3599,-2.3613,-2.3615,-2.3619,-2.362,-2.3621,-2.3622,-2.3629,-2.3631,-2.3613,-2.3613,-2.3613,0,0,-2.3495,-2.3504,-2.3511,-2.3527,-2.3534,-2.3544,-2.3541,-2.3552,-2.356,-2.3561,-2.3574,-2.3579,-2.3588,-2.3602,-2.3608,-2.3606,-2.3628,-2.3622,-2.3623,-2.3623,-2.3631,-2.3632,-2.3634,-2.3614,-2.3613,-2.3613,0,0,-2.3507,-2.3515,-2.3527,-2.3534,-2.3545,-2.355,-2.3553,-2.3564,-2.3568,-2.3581,-2.3582,-2.359,-2.3607,-2.3613,-2.3619,-2.3633,-2.3633,-2.3636,-2.3642,-2.3649,-2.365,-2.3651,-2.3656,-2.3657,-2.3637,-2.3637,-2.3637,0,-2.351,-2.3527,-2.3532,-2.3544,-2.355,-2.3553,-2.3564,-2.357,-2.3583,-2.3588,-2.3585,-2.3606,-2.3612,-2.3627,-2.3631,-2.3636,-2.3638,-2.3634,-2.365,-2.3651,-2.3652,-2.3656,-2.3658,-2.3637,-2.3637,-2.3637,-2.3637,0,-2.3529,-2.3541,-2.3548,-2.3562,-2.3569,-2.358,-2.3587,-2.3594,-2.3596,-2.3601,-2.3614,-2.3622,-2.3633,-2.3637,-2.3639,-2.3652,-2.365,-2.3649,-2.3644,-2.3654,-2.3658,-2.366,-2.3638,-2.3638,-2.3638,-2.3638,0,0,-2.3541,-2.3558,-2.356,-2.3566,-2.3579,-2.3587,-2.3598,-2.3609,-2.3615,-2.3624,-2.3632,-2.3646,-2.3645,-2.3651,-2.3654,-2.3661,-2.3671,-2.3658,-2.3659,-2.366,-2.3685,-2.3685,-2.3687,-2.3671,-2.3671,-2.3672,-2.3684,0,-2.3554,-2.3574,-2.3579,-2.3596,-2.3606,-2.3609,-2.3618,-2.3626,-2.3631,-2.364,-2.3645,-2.3655,-2.3653,-2.3656,-2.3663,-2.3668,-2.3676,-2.3667,-2.3678,-2.3678,-2.3675,-2.3689,-2.369,-2.3701,-2.3686,-2.3686,-2.3686,0,-2.3571,-2.3581,-2.3599,-2.361,-2.3614,-2.3623,-2.3633,-2.3642,-2.3651,-2.3654,-2.3661,-2.3663,-2.3674,-2.367,-2.3684,-2.3678,-2.3683,-2.3686,-2.3687,-2.3687,-2.3682,-2.3689,-2.3705,-2.3706,-2.3689,-2.3689,-2.3688,0,-2.3577,-2.3595,-2.3608,-2.3613,-2.3626,-2.3632,-2.3638,-2.3647,-2.3653,-2.3662,-2.3666,-2.3676,-2.3681,-2.3689,-2.3693,-2.369,-2.3707,-2.3703,-2.3709,-2.3709,-2.3712,-2.3711,-2.3727,-2.3716,-2.3716,-2.3716,-2.3716,0,-2.359,-2.36,-2.3611,-2.3618,-2.363,-2.3636,-2.3648,-2.3653,-2.3661,-2.367,-2.3672,-2.368,-2.3686,-2.3694,-2.3698,-2.3709,-2.3711,-2.3713,-2.3714,-2.3713,-2.3712,-2.3715,-2.3714,-2.3716,-2.3716,-2.3716,-2.3716,0,-2.3598,-2.3605,-2.3619,-2.3631,-2.3634,-2.3642,-2.3652,-2.3659,-2.3665,-2.3675,-2.3678,-2.3686,-2.3696,-2.3702,-2.3714,-2.3716,-2.3728,-2.3729,-2.3725,-2.3725,-2.3731,-2.373,-2.3748,-2.3751,-2.3739,-2.3739,-2.3739,0,-2.3605,-2.3614,-2.3627,-2.3633,-2.3639,-2.3649,-2.3656,-2.3662,-2.3668,-2.368,-2.3685,-2.3696,-2.3704,-2.372,-2.3726,-2.3735,-2.3736,-2.3742,-2.3737,-2.3735,-2.3735,-2.3734,-2.3735,-2.3742,-2.3742,-2.3742,-2.3742,0,-2.3618,-2.3621,-2.3631,-2.3642,-2.365,-2.3659,-2.3668,-2.3672,-2.368,-2.3687,-2.3698,-2.3704,-2.3717,-2.3727,-2.3737,-2.3742,-2.3743,-2.3744,-2.3746,-2.3744,-2.3741,-2.3742,-2.3726,-2.3743,-2.3743,-2.3743,-2.3743,-2.3743,-2.3625,-2.3633,-2.3643,-2.3654,-2.3661,-2.3669,-2.3677,-2.3683,-2.3692,-2.3704,-2.3707,-2.3718,-2.3726,-2.374,-2.3745,-2.3753,-2.3752,-2.3755,-2.3755,-2.3756,-2.3756,-2.3741,-2.3755,-2.3755,-2.3755,-2.3755,-2.3755,0,-2.3637,-2.3644,-2.3654,-2.3666,-2.3675,-2.3676,-2.3686,-2.3693,-2.3702,-2.3711,-2.3719,-2.3731,-2.3741,-2.3748,-2.3758,-2.3763,-2.3764,-2.3765,-2.3764,-2.3765,-2.3756,-2.3754,-2.3764,-2.3764,-2.3764,-2.3764,-2.3764,-2.3764,-2.3644,-2.3657,-2.3661,-2.3677,-2.3684,-2.3695,-2.37,-2.3708,-2.3714,-2.3728,-2.3736,-2.3741,-2.3749,-2.3759,-2.3768,-2.377,-2.3773,-2.3774,-2.3776,-2.3767,-2.3766,-2.3765,-2.3763,-2.3775,-2.3775,-2.3784,-2.3784,-2.3784]},{"header":{"parameterUnit":"m.s-1","parameterCategory":1,"la1":30.2991,"la2":30.254,"lo1":-89.0895,"lo2":-89.0444,"dy":0.0017,"dx":0.0017,"nx":28,"ny":28,"refTime":"2025-01-29T09:00:00:Z","depth":0,"parameterNumber":3,"parameterNumberName":"V-component_of_WINDS"},"data":[0,0,0,0,0,0,0,0,0,0,0,0,0,0,0,0,0,0,0,0,0,0,0,0,0,0,0,0,0,0,0,0,0,0,0,0,0,0,0,0,0,0,0,0,0,0,0,0,0,0,0,0,0,0,0,0,0,0,7.0098,7.0098,0,7.0108,7.0108,7.0108,7.0046,7.0044,7.0043,7.0041,7.0049,7.0051,7.0053,0,0,0,0,0,0,0,0,0,0,0,0,0,7.0027,7.0028,7.0098,7.0098,7.0098,7.0108,7.0108,7.0108,7.0047,7.0044,7.0042,7.004,7.0049,7.0051,7.0053,0,0,0,0,0,0,0,0,0,0,0,0,0,7.0049,7.0029,7.0098,7.0069,7.0066,7.0108,7.0108,7.0108,7.0047,7.0044,7.0042,7.0039,7.0048,7.0051,7.0053,7.0123,0,0,7.0062,7.0063,0,0,0,0,0,0,0,0,7.0048,7.0052,7.0073,7.0071,7.0068,7.0073,7.0086,7.0113,7.0048,7.0054,7.0041,7.0038,7.0059,7.0061,7.0068,7.0123,7.0124,7.0062,7.0064,7.0065,7.0066,0,0,0,0,0,0,0,7.0046,7.0051,7.0102,7.0073,7.007,7.0055,7.0056,7.0091,7.0071,7.0053,7.0049,7.0051,7.0057,7.0066,7.0068,7.0124,7.0062,7.0065,7.0066,7.0067,7.024,7.0242,0,0,0,0,0,0,7.0049,7.005,7.0101,7.0102,7.0051,7.0059,7.0059,7.0074,7.0071,7.0068,7.0053,7.0048,7.0062,7.0065,7.0068,7.0152,7.0065,7.0068,7.0069,7.0237,7.024,7.0243,0,0,0,0,0,0,7.0048,7.0054,7.0101,7.0075,7.008,7.0063,7.008,7.0076,7.0084,7.0071,7.0067,7.0066,7.0061,7.0064,7.0111,7.0151,7.0069,7.0071,7.0233,7.0238,7.0242,7.0318,0,0,0,0,0,0,7.0046,7.0054,7.008,7.0076,7.0081,7.0143,7.0083,7.0078,7.0089,7.0083,7.0081,7.0078,7.0059,7.0107,7.0114,7.0153,7.0074,7.023,7.0235,7.0241,7.0312,7.0325,7.0335,0,0,0,0,0,7.0043,7.0099,7.0081,7.0088,7.0113,7.0146,7.0149,7.0126,7.0093,7.0119,7.0111,7.0078,7.0146,7.0112,7.0119,7.016,7.0227,7.0234,7.024,7.0307,7.0322,7.0335,0,0,0,0,0,0,7.0106,7.0098,7.0078,7.0134,7.0142,7.0135,7.0167,7.0142,7.0158,7.0151,7.0121,7.0121,7.0173,7.0171,7.0134,7.0229,7.0181,7.0189,7.0229,7.0243,7.0255,7.0255,7.0076,0,0,0,0,0,7.0127,7.0155,7.0146,7.0196,7.0201,7.0184,7.0197,7.0179,7.0185,7.0187,7.0182,7.0189,7.0212,7.0227,7.0247,7.0311,7.0311,7.0343,7.0355,7.0365,7.0373,7.041,7.0424,7.0265,7.0265,7.0265,0,0,7.017,7.0169,7.0187,7.0209,7.0212,7.0242,7.0187,7.0219,7.0241,7.0192,7.0236,7.0233,7.0239,7.0295,7.032,7.0295,7.0417,7.0373,7.0381,7.0384,7.0418,7.0433,7.0446,7.0269,7.0269,7.0268,0,0,7.0263,7.0264,7.0308,7.0314,7.032,7.0309,7.032,7.0318,7.0315,7.0359,7.0324,7.035,7.0389,7.0395,7.0404,7.0504,7.0475,7.0511,7.0573,7.0609,7.0622,7.0633,7.0671,7.0684,7.0519,7.0519,7.0519,0,7.0315,7.0358,7.0334,7.037,7.0382,7.0341,7.0386,7.0392,7.0404,7.0414,7.0386,7.0437,7.0437,7.0497,7.0522,7.0529,7.0542,7.0511,7.0622,7.0633,7.0642,7.0679,7.0693,7.0523,7.0523,7.0522,7.0522,0,7.0423,7.0454,7.0489,7.0505,7.052,7.0561,7.0543,7.0562,7.0544,7.0536,7.0583,7.0583,7.0604,7.0616,7.0597,7.0674,7.0659,7.0627,7.0577,7.0663,7.0696,7.0709,7.053,7.0528,7.0527,7.0526,0,0,7.0554,7.0559,7.0572,7.0581,7.0587,7.061,7.065,7.0672,7.069,7.07,7.0734,7.077,7.0742,7.0752,7.0733,7.0765,7.0848,7.073,7.0729,7.0754,7.0935,7.0961,7.0977,7.0829,7.0832,7.0834,7.0936,0,7.0648,7.0717,7.0698,7.0767,7.0797,7.076,7.0795,7.0803,7.0797,7.0822,7.0815,7.0842,7.0802,7.0808,7.0838,7.0832,7.0884,7.0824,7.0861,7.0863,7.0863,7.0994,7.102,7.1116,7.0948,7.095,7.0952,0,7.0765,7.0783,7.0856,7.0861,7.0873,7.0905,7.0925,7.0949,7.0958,7.0952,7.0965,7.0941,7.0982,7.0932,7.0988,7.0948,7.0962,7.0962,7.0965,7.0969,7.0914,7.1003,7.1146,7.1161,7.0972,7.097,7.0969,0,7.0857,7.0899,7.0949,7.0957,7.0963,7.0987,7.099,7.0997,7.1013,7.103,7.1041,7.1062,7.1074,7.1092,7.1076,7.104,7.1135,7.1084,7.1133,7.1133,7.1155,7.1154,7.1304,7.1162,7.1161,7.1161,7.1161,0,7.0964,7.101,7.0991,7.1022,7.1074,7.1053,7.1105,7.1104,7.1111,7.1141,7.1109,7.1139,7.1115,7.1142,7.1129,7.118,7.1185,7.1182,7.1178,7.1186,7.1186,7.1195,7.1189,7.1165,7.1164,7.1163,7.1163,0,7.1075,7.1064,7.1116,7.1119,7.1121,7.116,7.1162,7.1191,7.1184,7.1224,7.1232,7.1221,7.1252,7.1238,7.1269,7.1261,7.1327,7.1313,7.1324,7.1321,7.1372,7.1369,7.1534,7.1556,7.1398,7.14,7.1401,0,7.1144,7.118,7.1188,7.1207,7.1213,7.1244,7.1261,7.1241,7.126,7.1276,7.1304,7.1332,7.1355,7.1406,7.1402,7.1427,7.1414,7.1471,7.1418,7.1426,7.1418,7.1417,7.1422,7.1482,7.1484,7.1485,7.1486,0,7.127,7.1264,7.129,7.1315,7.1337,7.1355,7.1371,7.1388,7.137,7.1393,7.1425,7.1443,7.1477,7.1507,7.153,7.1533,7.1508,7.1503,7.1517,7.1525,7.1531,7.1531,7.1355,7.15,7.1498,7.1497,7.1497,7.1496,7.1364,7.1395,7.1407,7.1438,7.1448,7.1465,7.1494,7.1492,7.1519,7.1547,7.1534,7.1573,7.1583,7.1611,7.1619,7.1649,7.1627,7.1645,7.165,7.1655,7.1663,7.1526,7.1653,7.1652,7.1652,7.1652,7.1651,0,7.149,7.1497,7.1525,7.155,7.1575,7.155,7.1567,7.159,7.1625,7.1638,7.1661,7.1701,7.173,7.1729,7.1756,7.1781,7.1771,7.1789,7.1788,7.179,7.168,7.1668,7.1798,7.1798,7.1798,7.1798,7.1798,7.1798,7.1559,7.1612,7.1608,7.1666,7.1672,7.1711,7.1724,7.1739,7.175,7.1796,7.1821,7.1821,7.1828,7.1857,7.1883,7.1882,7.1895,7.1919,7.1914,7.1812,7.1797,7.1783,7.1771,7.1921,7.1921,7.2021,7.2021,7.2022]}]]